Terug naar catalogus

THOR DELTA 1 DEB

ActiefPO
NORAD 5360·DEBRIS·🇺🇸 United States

Gelanceerd Apr 1, 1971 vanaf Vandenberg Space Force Base

Loading…

Volgende Passages (komende 24 uur)

TLE

VersSource: Space-Track

Epoch: Sep 14, 2026, 12:29 UTC

1 05360U 71024C   26257.52015228  .00000047  00000-0  18809-3 0  9995
2 05360  88.3076 159.4921 0040804 224.7303 256.4464 12.67939166565968

Volg THOR DELTA 1 DEB in realtime met AllMySat

Download on the App Store